{"data":{"norad_id":47588,"epoch":"2026-05-24T23:04:11.866080Z","epoch_age_seconds":89064,"freshness":"FRESH","line1":"1 47588U 21009AS  26144.96124845  .00556443  15041-3  96875-3 0  9999","line2":"2 47588  53.0311 315.6303 0008892 266.6005  93.4007 16.01571889293463","mean_motion":16.01571889,"eccentricity":0.0008892,"inclination_deg":53.0311,"raan_deg":315.6303,"arg_perigee_deg":266.6005,"mean_anomaly_deg":93.4007,"bstar":0.00096875,"rev_number":29346,"period_min":89.911668023789,"perigee_km":264.15356769773,"apogee_km":275.9767303996,"semimajor_km":6648.2021490487,"source":"CELESTRAK","updated_at":"2026-05-25T13:38:16.557607Z"}}